Terminal Aerodrome Forecast
Issued by NWS St Louis, MO

Home | Current Version | Previous Version | Text Only | Print | Product List | Glossary On
Versions: 1 2 3 4 5 6 7 8 9 10 11 12 13 14 15 16 17 18 19 20 21 22 23 24 25 26 27 28 29 30 31 32 33
000
FTUS43 KLSX 260200 AAA
TAFSTL
TAF AMD
KSTL 260219Z 2602/2706 03010KT 5SM -RA VCTS SCT025CB BKN100
     FM260300 35012KT 3SM -RA BR SCT009 OVC015
     FM261100 33012KT P6SM BKN100
     FM261800 32012KT P6SM SKC
     FM270400 31005KT P6SM BKN100=

USA.gov is the U.S. government's official web portal to all federal, state and local government web resources and services.